TVF7520 LOWW-UDYZ

Flight info

Callsign TVF7520
Flight time 3h 4m
Altitude 35000
Route ADAMA DCT VEDER DCT ALAMU DCT EPARI DCT BUDOP DCT UDROS/N0447F370 UM859 KARDE UL851 TBN UP146 YAVUZ UN161 INDUR
Aircraft B738/M-SDE2E3FGHIRWXY/LB1

Departure

Time 2026-04-20 04:11
Airport Vienna International Airport (LOWW)

Arrival

Time 2026-04-20 07:16
Airport Zvartnots International Airport (UDYZ)
Time Latitude Longitude Altitude Speed Heading
2026-04-20 03:58 48.11937 16.55804 600 ft 2 kts 296°
2026-04-20 03:58 48.11933 16.55817 600 ft 3 kts 295°
2026-04-20 03:59 48.11925 16.55845 601 ft 3 kts 295°
2026-04-20 03:59 48.11916 16.55872 601 ft 3 kts 292°
2026-04-20 03:59 48.11911 16.55898 601 ft 3 kts 258°
2026-04-20 03:59 48.11914 16.55911 600 ft 1 kts 206°
2026-04-20 04:00 48.11927 16.55921 600 ft 3 kts 206°
2026-04-20 04:00 48.11937 16.55928 599 ft 1 kts 206°
2026-04-20 04:03 48.11911 16.55910 601 ft 9 kts 203°
2026-04-20 04:04 48.11829 16.55853 607 ft 16 kts 206°
2026-04-20 04:04 48.11729 16.55787 615 ft 16 kts 187°
2026-04-20 04:04 48.11660 16.55893 618 ft 15 kts 116°
2026-04-20 04:04 48.11610 16.56048 619 ft 20 kts 116°
2026-04-20 04:05 48.11539 16.56264 622 ft 26 kts 116°
2026-04-20 04:05 48.11451 16.56536 623 ft 30 kts 116°
2026-04-20 04:05 48.11365 16.56797 625 ft 27 kts 116°
2026-04-20 04:05 48.11287 16.57039 625 ft 25 kts 116°
2026-04-20 04:06 48.11212 16.57268 626 ft 24 kts 115°
2026-04-20 04:06 48.11141 16.57484 618 ft 23 kts 116°
2026-04-20 04:06 48.11073 16.57694 619 ft 22 kts 116°
2026-04-20 04:06 48.10994 16.57808 624 ft 9 kts 159°
2026-04-20 04:07 48.11011 16.57892 622 ft 16 kts 31°
2026-04-20 04:07 48.11115 16.57847 608 ft 18 kts 300°
2026-04-20 04:07 48.11164 16.57687 618 ft 17 kts 288°
2026-04-20 04:07 48.11125 16.57595 617 ft 8 kts 169°
2026-04-20 04:08 48.11093 16.57626 623 ft 8 kts 141°
2026-04-20 04:08 48.11044 16.57641 619 ft 8 kts 195°
2026-04-20 04:08 48.11027 16.57633 616 ft 0 kts 201°
2026-04-20 04:09 48.11000 16.57616 617 ft 7 kts 207°
2026-04-20 04:09 48.10947 16.57530 629 ft 17 kts 252°
2026-04-20 04:09 48.10964 16.57379 626 ft 0 kts 296°
2026-04-20 04:10 48.10968 16.57367 628 ft 13 kts 297°
2026-04-20 04:10 48.11110 16.56935 632 ft 79 kts 295°
2026-04-20 04:11 48.11437 16.55928 623 ft 134 kts 296°
2026-04-20 04:11 48.11911 16.54449 659 ft 177 kts 296°
2026-04-20 04:11 48.12468 16.52714 1165 ft 189 kts 296°
2026-04-20 04:11 48.12965 16.50929 2013 ft 177 kts 295°
2026-04-20 04:12 48.13174 16.49098 2668 ft 194 kts 264°
2026-04-20 04:12 48.12376 16.47342 3116 ft 225 kts 220°
2026-04-20 04:12 48.10790 16.46720 3515 ft 253 kts 176°
2026-04-20 04:12 48.09133 16.47670 4198 ft 257 kts 152°
2026-04-20 04:13 48.07449 16.48411 4737 ft 251 kts 182°
2026-04-20 04:13 48.05690 16.48567 4985 ft 261 kts 168°
2026-04-20 04:13 48.04053 16.49864 5054 ft 285 kts 146°
2026-04-20 04:13 48.02353 16.51537 5091 ft 297 kts 148°
2026-04-20 04:14 48.00587 16.53196 5744 ft 300 kts 149°
2026-04-20 04:14 47.98818 16.54834 6615 ft 299 kts 150°
2026-04-20 04:14 47.97169 16.56753 7320 ft 305 kts 128°
2026-04-20 04:14 47.96241 16.59578 8039 ft 305 kts 98°
2026-04-20 04:15 47.96230 16.62704 8766 ft 301 kts 72°
2026-04-20 04:15 47.96862 16.65681 9480 ft 303 kts 65°
2026-04-20 04:15 47.97582 16.68667 10163 ft 308 kts 65°
2026-04-20 04:15 47.98324 16.71772 10454 ft 329 kts 66°
2026-04-20 04:16 47.99094 16.75059 10638 ft 351 kts 67°
2026-04-20 04:16 47.99815 16.78651 10967 ft 369 kts 77°
2026-04-20 04:16 48.00073 16.82509 11614 ft 376 kts 84°
2026-04-20 04:16 48.00230 16.86419 12345 ft 378 kts 85°
2026-04-20 04:17 48.00400 16.90359 13033 ft 382 kts 85°
2026-04-20 04:17 48.00601 16.94332 13706 ft 386 kts 84°
2026-04-20 04:17 48.00822 16.98351 14305 ft 390 kts 84°
2026-04-20 04:17 48.01049 17.02401 14898 ft 394 kts 85°
2026-04-20 04:18 48.01088 17.06509 15473 ft 398 kts 94°
2026-04-20 04:18 48.00793 17.10589 16067 ft 401 kts 98°
2026-04-20 04:18 48.00392 17.14787 16660 ft 405 kts 99°
2026-04-20 04:18 48.00000 17.18920 17232 ft 409 kts 99°
2026-04-20 04:19 47.99632 17.23166 17770 ft 415 kts 98°
2026-04-20 04:19 47.99286 17.27499 18144 ft 424 kts 97°
2026-04-20 04:19 47.98949 17.31868 18878 ft 421 kts 97°
2026-04-20 04:19 47.98497 17.36181 19464 ft 421 kts 105°
2026-04-20 04:20 47.97655 17.40371 19939 ft 424 kts 110°
2026-04-20 04:20 47.96685 17.44547 20413 ft 427 kts 111°
2026-04-20 04:20 47.95686 17.48753 20786 ft 434 kts 111°
2026-04-20 04:20 47.94686 17.53026 21215 ft 438 kts 111°
2026-04-20 04:21 47.93701 17.57343 21764 ft 439 kts 111°
2026-04-20 04:21 47.92734 17.61661 22291 ft 441 kts 110°
2026-04-20 04:21 47.91767 17.66022 22770 ft 443 kts 110°
2026-04-20 04:21 47.90800 17.70395 23262 ft 445 kts 110°
2026-04-20 04:22 47.89840 17.74734 23703 ft 448 kts 110°
2026-04-20 04:22 47.88857 17.79167 24070 ft 451 kts 110°
2026-04-20 04:22 47.87868 17.83612 24447 ft 453 kts 111°
2026-04-20 04:22 47.86874 17.88073 24811 ft 455 kts 111°
2026-04-20 04:23 47.85870 17.92564 25180 ft 457 kts 111°
2026-04-20 04:23 47.84858 17.97070 25540 ft 460 kts 111°
2026-04-20 04:23 47.83699 18.01506 25863 ft 460 kts 117°
2026-04-20 04:23 47.82351 18.05829 26308 ft 459 kts 118°
2026-04-20 04:24 47.80957 18.10104 26693 ft 460 kts 119°
2026-04-20 04:24 47.79561 18.14397 26997 ft 463 kts 118°
2026-04-20 04:24 47.78174 18.18739 27297 ft 466 kts 118°
2026-04-20 04:24 47.76798 18.23112 27623 ft 468 kts 118°
2026-04-20 04:25 47.75440 18.27441 27944 ft 470 kts 118°
2026-04-20 04:25 47.74156 18.31929 28237 ft 474 kts 111°
2026-04-20 04:25 47.73307 18.36677 28524 ft 479 kts 101°
2026-04-20 04:25 47.72899 18.41605 28861 ft 480 kts 97°
2026-04-20 04:26 47.72567 18.46541 29239 ft 481 kts 97°
2026-04-20 04:26 47.72237 18.51492 29499 ft 483 kts 97°
2026-04-20 04:26 47.71887 18.56478 29722 ft 486 kts 97°
2026-04-20 04:26 47.71517 18.61471 30006 ft 487 kts 98°
2026-04-20 04:27 47.71133 18.66465 30340 ft 486 kts 98°
2026-04-20 04:27 47.70743 18.71441 30674 ft 485 kts 98°
2026-04-20 04:27 47.70349 18.76410 30934 ft 485 kts 98°
2026-04-20 04:27 47.69953 18.81396 31161 ft 486 kts 98°
2026-04-20 04:28 47.69557 18.86380 31458 ft 486 kts 98°
2026-04-20 04:28 47.69159 18.91358 31749 ft 485 kts 98°
2026-04-20 04:28 47.68547 18.96276 31989 ft 484 kts 107°
2026-04-20 04:28 47.67457 19.00994 32237 ft 482 kts 116°
2026-04-20 04:29 47.65918 19.05395 32489 ft 479 kts 122°
2026-04-20 04:29 47.64256 19.09683 32714 ft 480 kts 123°
2026-04-20 04:29 47.62598 19.13918 32921 ft 481 kts 123°
2026-04-20 04:29 47.60920 19.18211 33164 ft 481 kts 122°
2026-04-20 04:30 47.59252 19.22507 33418 ft 481 kts 122°
2026-04-20 04:30 47.57588 19.26818 33654 ft 482 kts 122°
2026-04-20 04:30 47.55927 19.31140 33864 ft 483 kts 122°
2026-04-20 04:30 47.54266 19.35469 34068 ft 483 kts 122°
2026-04-20 04:31 47.52607 19.39791 34296 ft 482 kts 122°
2026-04-20 04:31 47.50951 19.44104 34540 ft 481 kts 122°
2026-04-20 04:31 47.49299 19.48397 34749 ft 480 kts 122°
2026-04-20 04:31 47.47647 19.52682 34931 ft 480 kts 122°
2026-04-20 04:32 47.44313 19.61300 34978 ft 484 kts 122°
2026-04-20 04:32 47.40997 19.69848 34965 ft 481 kts 122°
2026-04-20 04:33 47.37673 19.78389 34965 ft 478 kts 122°
2026-04-20 04:33 47.34361 19.86870 34964 ft 476 kts 122°
2026-04-20 04:34 47.31054 19.95312 34947 ft 474 kts 122°
2026-04-20 04:34 47.27744 20.03736 34954 ft 474 kts 122°
2026-04-20 04:35 47.24430 20.12141 34951 ft 476 kts 122°
2026-04-20 04:35 47.21115 20.20525 34944 ft 478 kts 122°
2026-04-20 04:36 47.16063 20.33252 34969 ft 482 kts 122°
2026-04-20 04:37 47.12666 20.41777 34965 ft 484 kts 122°
2026-04-20 04:37 47.09246 20.50333 34951 ft 486 kts 122°
2026-04-20 04:38 47.05837 20.58834 34942 ft 486 kts 122°
2026-04-20 04:38 47.02404 20.67370 34939 ft 485 kts 122°
2026-04-20 04:39 46.98976 20.75868 34943 ft 484 kts 122°
2026-04-20 04:39 46.95550 20.84331 34943 ft 482 kts 122°
2026-04-20 04:40 46.92130 20.92755 34956 ft 480 kts 122°
2026-04-20 04:40 46.88713 21.01144 34937 ft 479 kts 122°
2026-04-20 04:41 46.85302 21.09494 34938 ft 477 kts 122°
2026-04-20 04:41 46.81896 21.17806 34942 ft 476 kts 122°
2026-04-20 04:42 46.78517 21.26030 34939 ft 475 kts 122°
2026-04-20 04:42 46.75106 21.34305 34942 ft 475 kts 122°
2026-04-20 04:43 46.71692 21.42567 34941 ft 476 kts 123°
2026-04-20 04:43 46.68280 21.50840 34943 ft 476 kts 121°
2026-04-20 04:44 46.65087 21.59315 34950 ft 477 kts 119°
2026-04-20 04:44 46.61987 21.67873 34953 ft 478 kts 119°
2026-04-20 04:45 46.58884 21.76370 34961 ft 479 kts 119°
2026-04-20 04:45 46.55728 21.84908 34957 ft 479 kts 120°
2026-04-20 04:46 46.52554 21.93429 34951 ft 480 kts 120°
2026-04-20 04:46 46.49366 22.01958 34959 ft 480 kts 120°
2026-04-20 04:47 46.46171 22.10479 34953 ft 480 kts 120°
2026-04-20 04:47 46.42975 22.18982 34960 ft 480 kts 120°
2026-04-20 04:48 46.39774 22.27468 34966 ft 480 kts 120°
2026-04-20 04:48 46.36566 22.35948 34956 ft 480 kts 120°
2026-04-20 04:49 46.33357 22.44405 34969 ft 479 kts 120°
2026-04-20 04:49 46.30165 22.52790 34963 ft 478 kts 120°
2026-04-20 04:50 46.26947 22.61216 34964 ft 478 kts 120°
2026-04-20 04:50 46.23726 22.69626 34962 ft 478 kts 120°
2026-04-20 04:51 46.20502 22.78018 34974 ft 477 kts 120°
2026-04-20 04:51 46.17272 22.86399 34956 ft 477 kts 120°
2026-04-20 04:52 46.14060 22.94707 34973 ft 477 kts 120°
2026-04-20 04:52 46.10826 23.03047 34972 ft 477 kts 120°
2026-04-20 04:53 46.07583 23.11385 34973 ft 476 kts 120°
2026-04-20 04:53 46.04337 23.19707 34963 ft 477 kts 120°
2026-04-20 04:54 46.01082 23.28025 34941 ft 476 kts 120°
2026-04-20 04:54 45.97827 23.36317 34944 ft 476 kts 120°
2026-04-20 04:55 45.94587 23.44547 34954 ft 475 kts 120°
2026-04-20 04:55 45.91327 23.52802 34955 ft 475 kts 120°
2026-04-20 04:56 45.88062 23.61046 34965 ft 474 kts 120°
2026-04-20 04:56 45.84815 23.69220 34952 ft 473 kts 120°
2026-04-20 04:57 45.82099 23.76040 34952 ft 473 kts 120°
2026-04-20 04:57 45.78829 23.84226 34944 ft 472 kts 120°
2026-04-20 04:58 45.75561 23.92386 34938 ft 472 kts 120°
2026-04-20 04:58 45.72289 24.00530 34940 ft 472 kts 120°
2026-04-20 04:59 45.69013 24.08659 34953 ft 471 kts 120°
2026-04-20 04:59 45.65736 24.16769 34966 ft 471 kts 121°
2026-04-20 05:00 45.62453 24.24870 34955 ft 471 kts 121°
2026-04-20 05:00 45.59165 24.32958 34970 ft 471 kts 121°
2026-04-20 05:01 45.55863 24.41059 34960 ft 472 kts 121°
2026-04-20 05:01 45.52556 24.49145 34949 ft 472 kts 121°
2026-04-20 05:02 45.49250 24.57208 34957 ft 471 kts 121°
2026-04-20 05:02 45.45954 24.65224 34962 ft 471 kts 121°
2026-04-20 05:03 45.42632 24.73280 34965 ft 471 kts 121°
2026-04-20 05:03 45.39304 24.81327 34964 ft 471 kts 121°
2026-04-20 05:04 45.35974 24.89355 34965 ft 471 kts 121°
2026-04-20 05:04 45.32637 24.97377 34965 ft 471 kts 121°
2026-04-20 05:05 45.29294 25.05390 34967 ft 471 kts 121°
2026-04-20 05:05 45.25945 25.13394 34968 ft 472 kts 121°
2026-04-20 05:06 45.22609 25.21345 34966 ft 471 kts 121°
2026-04-20 05:06 45.19248 25.29335 34959 ft 472 kts 121°
2026-04-20 05:07 45.15882 25.37312 34964 ft 472 kts 121°
2026-04-20 05:07 45.12510 25.45281 34965 ft 471 kts 121°
2026-04-20 05:08 45.09136 25.53233 34959 ft 471 kts 122°
2026-04-20 05:08 45.05757 25.61173 34962 ft 471 kts 122°
2026-04-20 05:09 45.02379 25.69090 34951 ft 470 kts 122°
2026-04-20 05:09 44.98997 25.76995 34957 ft 469 kts 122°
2026-04-20 05:10 44.95614 25.84879 34957 ft 469 kts 122°
2026-04-20 05:10 44.92230 25.92742 34954 ft 468 kts 122°
2026-04-20 05:11 44.88859 26.00554 34955 ft 468 kts 122°
2026-04-20 05:11 44.85468 26.08391 34958 ft 468 kts 122°
2026-04-20 05:12 44.82072 26.16220 34957 ft 467 kts 122°
2026-04-20 05:12 44.78695 26.23982 34958 ft 467 kts 122°
2026-04-20 05:13 44.75291 26.31783 34948 ft 467 kts 122°
2026-04-20 05:13 44.71886 26.39567 34950 ft 467 kts 122°
2026-04-20 05:14 44.68475 26.47345 34955 ft 467 kts 122°
2026-04-20 05:14 44.65058 26.55112 34950 ft 467 kts 122°
2026-04-20 05:15 44.61634 26.62877 34948 ft 468 kts 122°
2026-04-20 05:15 44.58225 26.70585 34956 ft 468 kts 122°
2026-04-20 05:16 44.54784 26.78345 34943 ft 468 kts 122°
2026-04-20 05:16 44.51332 26.86109 34955 ft 469 kts 122°
2026-04-20 05:17 44.47877 26.93859 34957 ft 469 kts 122°
2026-04-20 05:17 44.44411 27.01611 34956 ft 470 kts 122°
2026-04-20 05:18 44.40960 27.09311 34957 ft 470 kts 122°
2026-04-20 05:18 44.37476 27.17062 34957 ft 470 kts 123°
2026-04-20 05:19 44.33987 27.24804 34959 ft 471 kts 123°
2026-04-20 05:19 44.30489 27.32545 34959 ft 471 kts 123°
2026-04-20 05:20 44.26977 27.40296 34962 ft 471 kts 123°
2026-04-20 05:20 44.23469 27.48019 34955 ft 471 kts 123°
2026-04-20 05:21 44.19969 27.55702 34968 ft 471 kts 123°
2026-04-20 05:21 44.16446 27.63415 34968 ft 472 kts 123°
2026-04-20 05:22 44.12918 27.71120 34969 ft 472 kts 123°
2026-04-20 05:22 44.09377 27.78830 34976 ft 472 kts 123°
2026-04-20 05:23 44.05835 27.86523 34969 ft 472 kts 123°
2026-04-20 05:23 44.02290 27.94203 34977 ft 472 kts 123°
2026-04-20 05:24 43.98743 28.01867 34983 ft 472 kts 123°
2026-04-20 05:24 43.95186 28.09531 34985 ft 472 kts 123°
2026-04-20 05:25 43.91627 28.17181 34989 ft 472 kts 123°
2026-04-20 05:25 43.88081 28.24782 34988 ft 472 kts 123°
2026-04-20 05:26 43.84505 28.32428 34997 ft 472 kts 123°
2026-04-20 05:26 43.80927 28.40058 35000 ft 472 kts 124°
2026-04-20 05:27 43.77344 28.47678 35005 ft 473 kts 124°
2026-04-20 05:27 43.73775 28.55248 35011 ft 473 kts 124°
2026-04-20 05:28 43.70174 28.62867 35018 ft 473 kts 124°
2026-04-20 05:28 43.66571 28.70470 35022 ft 473 kts 124°
2026-04-20 05:29 43.62961 28.78068 35027 ft 473 kts 124°
2026-04-20 05:29 43.59343 28.85664 35026 ft 473 kts 124°
2026-04-20 05:30 43.55722 28.93245 35027 ft 473 kts 124°
2026-04-20 05:30 43.52116 29.00776 35034 ft 474 kts 124°
2026-04-20 05:31 43.48483 29.08345 35036 ft 474 kts 124°
2026-04-20 05:31 43.44839 29.15916 35025 ft 475 kts 124°
2026-04-20 05:32 43.41185 29.23479 35035 ft 475 kts 124°
2026-04-20 05:32 43.37526 29.31047 35037 ft 475 kts 124°
2026-04-20 05:33 43.33852 29.38628 35044 ft 475 kts 124°
2026-04-20 05:33 43.30178 29.46185 35044 ft 476 kts 124°
2026-04-20 05:34 43.26494 29.53742 35047 ft 476 kts 124°
2026-04-20 05:34 43.20979 29.65018 35050 ft 477 kts 124°
2026-04-20 05:35 43.17278 29.72562 35052 ft 477 kts 124°
2026-04-20 05:35 43.13571 29.80099 35052 ft 477 kts 124°
2026-04-20 05:36 43.09856 29.87634 35051 ft 477 kts 124°
2026-04-20 05:36 43.06144 29.95142 35055 ft 476 kts 124°
2026-04-20 05:37 43.02427 30.02641 35054 ft 476 kts 124°
2026-04-20 05:37 42.98707 30.10128 35056 ft 476 kts 124°
2026-04-20 05:38 42.94985 30.17601 35057 ft 476 kts 125°
2026-04-20 05:38 42.91257 30.25066 35056 ft 476 kts 124°
2026-04-20 05:39 42.87548 30.32475 35060 ft 475 kts 124°
2026-04-20 05:39 42.83810 30.39925 35060 ft 475 kts 125°
2026-04-20 05:40 42.80069 30.47364 35064 ft 475 kts 124°
2026-04-20 05:40 42.76331 30.54794 35064 ft 475 kts 123°
2026-04-20 05:41 42.74750 30.58742 35059 ft 475 kts 112°
2026-04-20 05:41 42.73624 30.62953 35068 ft 474 kts 104°
2026-04-20 05:41 42.72540 30.71687 35076 ft 472 kts 95°
2026-04-20 05:42 42.71717 30.80551 35070 ft 472 kts 95°
2026-04-20 05:42 42.70853 30.89428 35069 ft 472 kts 96°
2026-04-20 05:43 42.69950 30.98269 35074 ft 473 kts 96°
2026-04-20 05:43 42.69027 31.07128 35074 ft 473 kts 96°
2026-04-20 05:44 42.68104 31.15916 35075 ft 473 kts 96°
2026-04-20 05:44 42.67164 31.24817 35074 ft 472 kts 96°
2026-04-20 05:45 42.66232 31.33593 35076 ft 472 kts 96°
2026-04-20 05:45 42.65286 31.42424 35079 ft 472 kts 96°
2026-04-20 05:46 42.64333 31.51250 35080 ft 472 kts 96°
2026-04-20 05:46 42.63538 31.58573 35077 ft 471 kts 96°
2026-04-20 05:47 42.62575 31.67376 35079 ft 471 kts 96°
2026-04-20 05:47 42.61606 31.76170 35081 ft 470 kts 96°
2026-04-20 05:48 42.60631 31.84961 35087 ft 470 kts 96°
2026-04-20 05:48 42.59652 31.93724 35083 ft 469 kts 96°
2026-04-20 05:49 42.58667 32.02495 35083 ft 469 kts 96°
2026-04-20 05:49 42.57694 32.11241 35084 ft 468 kts 97°
2026-04-20 05:50 42.56695 32.19970 35090 ft 468 kts 96°
2026-04-20 05:50 42.55694 32.28634 35086 ft 468 kts 96°
2026-04-20 05:51 42.54683 32.37353 35090 ft 467 kts 97°
2026-04-20 05:51 42.53668 32.46061 35090 ft 467 kts 97°
2026-04-20 05:52 42.52646 32.54768 35087 ft 467 kts 97°
2026-04-20 05:52 42.51617 32.63474 35093 ft 467 kts 97°
2026-04-20 05:53 42.50582 32.72175 35085 ft 467 kts 97°
2026-04-20 05:53 42.49548 32.80805 35087 ft 467 kts 97°
2026-04-20 05:54 42.48503 32.89481 35090 ft 467 kts 97°
2026-04-20 05:54 42.47450 32.98160 35090 ft 467 kts 97°
2026-04-20 05:55 42.46392 33.06830 35087 ft 466 kts 97°
2026-04-20 05:55 42.45326 33.15503 35087 ft 466 kts 97°
2026-04-20 05:56 42.44251 33.24164 35088 ft 466 kts 97°
2026-04-20 05:56 42.43172 33.32821 35093 ft 466 kts 97°
2026-04-20 05:57 42.42086 33.41478 35085 ft 466 kts 97°
2026-04-20 05:57 42.40993 33.50129 35088 ft 466 kts 97°
2026-04-20 05:58 42.39902 33.58711 35087 ft 466 kts 97°
2026-04-20 05:58 42.38799 33.67348 35092 ft 465 kts 97°
2026-04-20 05:59 42.37690 33.75975 35081 ft 465 kts 97°
2026-04-20 05:59 42.36578 33.84585 35088 ft 465 kts 97°
2026-04-20 06:00 42.35458 33.93195 35084 ft 464 kts 97°
2026-04-20 06:00 42.34335 34.01793 35096 ft 464 kts 97°
2026-04-20 06:01 42.33208 34.10380 35081 ft 464 kts 98°
2026-04-20 06:01 42.32082 34.18913 35082 ft 463 kts 98°
2026-04-20 06:02 42.30945 34.27479 35083 ft 463 kts 98°
2026-04-20 06:02 42.29804 34.36032 35088 ft 462 kts 98°
2026-04-20 06:03 42.28655 34.44572 35083 ft 462 kts 98°
2026-04-20 06:03 42.27496 34.53120 35077 ft 462 kts 98°
2026-04-20 06:04 42.26333 34.61657 35080 ft 462 kts 98°
2026-04-20 06:04 42.25173 34.70132 35075 ft 461 kts 98°
2026-04-20 06:05 42.24000 34.78655 35080 ft 461 kts 98°
2026-04-20 06:05 42.22819 34.87158 35077 ft 461 kts 98°
2026-04-20 06:06 42.21630 34.95651 35077 ft 460 kts 98°
2026-04-20 06:06 42.20444 35.04084 35078 ft 460 kts 99°
2026-04-20 06:07 42.19248 35.12555 35079 ft 459 kts 99°
2026-04-20 06:07 42.18047 35.21009 35071 ft 459 kts 99°
2026-04-20 06:08 42.16842 35.29448 35068 ft 458 kts 99°
2026-04-20 06:08 42.15634 35.37870 35072 ft 457 kts 99°
2026-04-20 06:09 42.14419 35.46282 35076 ft 456 kts 99°
2026-04-20 06:09 42.13203 35.54664 35071 ft 456 kts 100°
2026-04-20 06:10 42.11981 35.63052 35075 ft 457 kts 100°
2026-04-20 06:10 42.10751 35.71455 35074 ft 457 kts 100°
2026-04-20 06:11 42.09515 35.79872 35072 ft 458 kts 100°
2026-04-20 06:11 42.08265 35.88307 35065 ft 460 kts 100°
2026-04-20 06:12 42.07018 35.96692 35076 ft 460 kts 100°
2026-04-20 06:12 42.05753 36.05149 35075 ft 461 kts 100°
2026-04-20 06:13 42.04481 36.13611 35065 ft 461 kts 101°
2026-04-20 06:13 42.03201 36.22071 35064 ft 461 kts 101°
2026-04-20 06:14 42.01918 36.30514 35071 ft 461 kts 101°
2026-04-20 06:14 42.00629 36.38955 35066 ft 460 kts 101°
2026-04-20 06:15 41.99337 36.47375 35065 ft 459 kts 101°
2026-04-20 06:15 41.98041 36.55772 35068 ft 459 kts 101°
2026-04-20 06:16 41.96748 36.64113 35076 ft 458 kts 101°
2026-04-20 06:16 41.95439 36.72510 35068 ft 459 kts 101°
2026-04-20 06:17 41.94124 36.80903 35058 ft 459 kts 102°
2026-04-20 06:17 41.92802 36.89301 35069 ft 459 kts 102°
2026-04-20 06:18 41.91475 36.97694 35070 ft 460 kts 102°
2026-04-20 06:18 41.90010 37.06045 35060 ft 460 kts 110°
2026-04-20 06:19 41.87561 37.13974 35060 ft 459 kts 114°
2026-04-20 06:19 41.84991 37.21818 35064 ft 459 kts 114°
2026-04-20 06:20 41.82469 37.29682 35065 ft 459 kts 114°
2026-04-20 06:20 41.79992 37.37505 35066 ft 458 kts 114°
2026-04-20 06:21 41.77502 37.45364 35066 ft 458 kts 114°
2026-04-20 06:21 41.75006 37.53214 35073 ft 457 kts 114°
2026-04-20 06:22 41.72508 37.61044 35067 ft 457 kts 114°
2026-04-20 06:22 41.70005 37.68862 35068 ft 457 kts 114°
2026-04-20 06:23 41.67500 37.76666 35063 ft 457 kts 115°
2026-04-20 06:23 41.64985 37.84474 35067 ft 457 kts 115°
2026-04-20 06:24 41.62470 37.92268 35069 ft 457 kts 115°
2026-04-20 06:24 41.59964 38.00013 35059 ft 457 kts 115°
2026-04-20 06:25 41.57432 38.07816 35063 ft 458 kts 116°
2026-04-20 06:25 41.54892 38.15619 35063 ft 458 kts 116°
2026-04-20 06:26 41.52341 38.23438 35065 ft 459 kts 116°
2026-04-20 06:26 41.49781 38.31259 35067 ft 460 kts 116°
2026-04-20 06:27 41.47219 38.39064 35068 ft 460 kts 116°
2026-04-20 06:27 41.44650 38.46870 35067 ft 460 kts 116°
2026-04-20 06:28 41.42087 38.54633 35070 ft 460 kts 116°
2026-04-20 06:28 41.39503 38.62443 35067 ft 460 kts 117°
2026-04-20 06:29 41.36919 38.70229 35070 ft 460 kts 117°
2026-04-20 06:29 41.34329 38.78011 35068 ft 460 kts 117°
2026-04-20 06:30 41.31762 38.85802 35068 ft 459 kts 117°
2026-04-20 06:30 41.29236 38.93548 35062 ft 459 kts 117°
2026-04-20 06:31 41.26691 39.01322 35076 ft 458 kts 117°
2026-04-20 06:31 41.24137 39.09084 35075 ft 458 kts 117°
2026-04-20 06:32 41.21582 39.16829 35066 ft 457 kts 117°
2026-04-20 06:32 41.18950 39.24501 35074 ft 456 kts 119°
2026-04-20 06:33 41.16265 39.32117 35073 ft 456 kts 119°
2026-04-20 06:33 41.13579 39.39750 35078 ft 456 kts 119°
2026-04-20 06:34 41.11352 39.46089 35079 ft 456 kts 119°
2026-04-20 06:35 41.07326 39.57530 35077 ft 456 kts 119°
2026-04-20 06:35 41.04636 39.65150 35076 ft 456 kts 119°
2026-04-20 06:36 41.01938 39.72772 35069 ft 456 kts 119°
2026-04-20 06:36 40.99239 39.80378 35078 ft 457 kts 119°
2026-04-20 06:37 40.96585 39.88023 35084 ft 458 kts 118°
2026-04-20 06:37 40.93966 39.95639 35065 ft 458 kts 119°
2026-04-20 06:38 40.91317 40.03302 35075 ft 459 kts 119°
2026-04-20 06:38 40.88656 40.10960 35075 ft 458 kts 119°
2026-04-20 06:39 40.85984 40.18627 35080 ft 459 kts 119°
2026-04-20 06:39 40.83307 40.26289 35078 ft 459 kts 119°
2026-04-20 06:40 40.80626 40.33946 35072 ft 459 kts 119°
2026-04-20 06:40 40.77944 40.41577 35079 ft 458 kts 119°
2026-04-20 06:41 40.75278 40.49138 35046 ft 456 kts 120°
2026-04-20 06:41 40.72602 40.56714 35063 ft 455 kts 120°
2026-04-20 06:42 40.69927 40.64271 35060 ft 454 kts 120°
2026-04-20 06:42 40.67247 40.71818 35042 ft 454 kts 120°
2026-04-20 06:43 40.64563 40.79358 35033 ft 456 kts 120°
2026-04-20 06:43 40.61863 40.86923 35019 ft 457 kts 120°
2026-04-20 06:44 40.59151 40.94503 34996 ft 457 kts 120°
2026-04-20 06:44 40.56452 41.02030 34953 ft 457 kts 120°
2026-04-20 06:45 40.53740 41.09569 34977 ft 457 kts 120°
2026-04-20 06:45 40.51014 41.17128 34985 ft 458 kts 120°
2026-04-20 06:46 40.48278 41.24694 34974 ft 459 kts 120°
2026-04-20 06:46 40.45531 41.32270 34957 ft 459 kts 120°
2026-04-20 06:47 40.42796 41.39797 34955 ft 459 kts 120°
2026-04-20 06:47 40.40041 41.47358 34963 ft 459 kts 120°
2026-04-20 06:48 40.37278 41.54919 34940 ft 460 kts 121°
2026-04-20 06:48 40.34502 41.62495 34942 ft 461 kts 121°
2026-04-20 06:49 40.31717 41.70080 34963 ft 462 kts 121°
2026-04-20 06:49 40.28932 41.77647 34652 ft 459 kts 121°
2026-04-20 06:49 40.27557 41.81380 34287 ft 451 kts 121°
2026-04-20 06:50 40.26196 41.85072 33893 ft 447 kts 121°
2026-04-20 06:50 40.24867 41.88669 33460 ft 443 kts 122°
2026-04-20 06:50 40.23530 41.92280 33016 ft 438 kts 122°
2026-04-20 06:50 40.22209 41.95842 32617 ft 433 kts 122°
2026-04-20 06:51 40.20900 41.99369 32221 ft 429 kts 122°
2026-04-20 06:51 40.19600 42.02866 31813 ft 425 kts 122°
2026-04-20 06:51 40.18311 42.06330 31405 ft 422 kts 122°
2026-04-20 06:51 40.17033 42.09757 31030 ft 418 kts 122°
2026-04-20 06:52 40.15765 42.13157 30641 ft 414 kts 122°
2026-04-20 06:52 40.14505 42.16531 30268 ft 411 kts 122°
2026-04-20 06:52 40.13257 42.19868 29879 ft 408 kts 123°
2026-04-20 06:52 40.12013 42.23192 29443 ft 404 kts 123°
2026-04-20 06:53 40.10787 42.26466 29069 ft 399 kts 122°
2026-04-20 06:53 40.09573 42.29701 28669 ft 395 kts 122°
2026-04-20 06:53 40.08369 42.32910 28246 ft 391 kts 122°
2026-04-20 06:53 40.07178 42.36079 27885 ft 387 kts 122°
2026-04-20 06:54 40.05995 42.39226 27481 ft 385 kts 121°
2026-04-20 06:54 40.05072 42.42520 27099 ft 390 kts 109°
2026-04-20 06:54 40.04659 42.46025 26788 ft 391 kts 98°
2026-04-20 06:54 40.04717 42.49583 26433 ft 392 kts 90°
2026-04-20 06:55 40.04947 42.53119 26066 ft 390 kts 89°
2026-04-20 06:55 40.05198 42.56595 25703 ft 388 kts 89°
2026-04-20 06:55 40.05447 42.60095 25337 ft 386 kts 89°
2026-04-20 06:55 40.05683 42.63577 24972 ft 384 kts 89°
2026-04-20 06:56 40.05906 42.67045 24599 ft 382 kts 89°
2026-04-20 06:56 40.06122 42.70493 24229 ft 381 kts 89°
2026-04-20 06:56 40.06331 42.73937 23863 ft 379 kts 89°
2026-04-20 06:56 40.06536 42.77360 23497 ft 378 kts 89°
2026-04-20 06:57 40.06740 42.80776 23076 ft 377 kts 89°
2026-04-20 06:57 40.06942 42.84180 22676 ft 375 kts 89°
2026-04-20 06:57 40.07144 42.87575 22300 ft 373 kts 89°
2026-04-20 06:57 40.07343 42.90944 21922 ft 371 kts 89°
2026-04-20 06:58 40.07538 42.94291 21564 ft 368 kts 89°
2026-04-20 06:58 40.07732 42.97596 21276 ft 363 kts 89°
2026-04-20 06:58 40.07924 43.00885 20902 ft 362 kts 89°
2026-04-20 06:58 40.08117 43.04154 20554 ft 360 kts 89°
2026-04-20 06:59 40.08306 43.07408 20199 ft 358 kts 89°
2026-04-20 06:59 40.08489 43.10608 19858 ft 357 kts 89°
2026-04-20 06:59 40.08674 43.13839 19508 ft 356 kts 89°
2026-04-20 06:59 40.08858 43.17057 19152 ft 355 kts 88°
2026-04-20 07:00 40.09043 43.20265 18792 ft 353 kts 88°
2026-04-20 07:00 40.09220 43.23447 18455 ft 351 kts 89°
2026-04-20 07:00 40.09396 43.26624 18078 ft 351 kts 88°
2026-04-20 07:00 40.09576 43.29796 17681 ft 349 kts 88°
2026-04-20 07:01 40.09748 43.32947 17321 ft 347 kts 89°
2026-04-20 07:01 40.09908 43.36078 16964 ft 345 kts 88°
2026-04-20 07:01 40.10087 43.39193 16617 ft 343 kts 88°
2026-04-20 07:01 40.10262 43.42294 16264 ft 342 kts 88°
2026-04-20 07:02 40.10432 43.45389 15922 ft 340 kts 88°
2026-04-20 07:02 40.10600 43.48468 15585 ft 338 kts 88°
2026-04-20 07:02 40.10764 43.51525 15247 ft 337 kts 88°
2026-04-20 07:02 40.10927 43.54566 14922 ft 335 kts 88°
2026-04-20 07:03 40.11089 43.57607 14582 ft 334 kts 88°
2026-04-20 07:03 40.11249 43.60627 14256 ft 332 kts 88°
2026-04-20 07:03 40.11407 43.63624 14043 ft 327 kts 88°
2026-04-20 07:03 40.11642 43.66498 13849 ft 322 kts 78°
2026-04-20 07:04 40.12535 43.69213 13308 ft 329 kts 61°
2026-04-20 07:04 40.13643 43.71865 12748 ft 335 kts 62°
2026-04-20 07:04 40.14738 43.74572 12197 ft 339 kts 63°
2026-04-20 07:04 40.15671 43.77410 11628 ft 342 kts 79°
2026-04-20 07:05 40.15797 43.80492 11204 ft 339 kts 95°
2026-04-20 07:05 40.15655 43.83568 10734 ft 339 kts 96°
2026-04-20 07:05 40.15490 43.86652 10286 ft 340 kts 96°
2026-04-20 07:05 40.15330 43.89739 9829 ft 341 kts 96°
2026-04-20 07:06 40.15183 43.92780 9794 ft 327 kts 96°
2026-04-20 07:06 40.15051 43.95688 9725 ft 315 kts 96°
2026-04-20 07:06 40.14926 43.98503 9649 ft 304 kts 95°
2026-04-20 07:06 40.14805 44.01213 9569 ft 294 kts 95°
2026-04-20 07:07 40.14688 44.03835 9487 ft 284 kts 95°
2026-04-20 07:07 40.14632 44.06340 9399 ft 275 kts 92°
2026-04-20 07:07 40.14608 44.08803 9255 ft 268 kts 92°
2026-04-20 07:07 40.14583 44.11217 9117 ft 261 kts 92°
2026-04-20 07:08 40.14556 44.13565 8962 ft 255 kts 92°
2026-04-20 07:08 40.14564 44.15874 8723 ft 254 kts 91°
2026-04-20 07:08 40.14587 44.18173 8530 ft 251 kts 90°
2026-04-20 07:08 40.14607 44.20424 8447 ft 240 kts 91°
2026-04-20 07:09 40.14643 44.22553 8305 ft 230 kts 91°
2026-04-20 07:09 40.14664 44.24625 7952 ft 226 kts 91°
2026-04-20 07:09 40.14671 44.26658 7555 ft 221 kts 91°
2026-04-20 07:09 40.14678 44.28605 7294 ft 208 kts 91°
2026-04-20 07:10 40.14686 44.30370 7149 ft 183 kts 91°
2026-04-20 07:10 40.14519 44.31987 6603 ft 179 kts 119°
2026-04-20 07:10 40.13667 44.33047 6106 ft 169 kts 162°
2026-04-20 07:10 40.12527 44.33376 5560 ft 169 kts 173°
2026-04-20 07:11 40.11373 44.33334 5106 ft 165 kts 205°
2026-04-20 07:11 40.10570 44.32258 5085 ft 170 kts 249°
2026-04-20 07:11 40.10422 44.30760 5053 ft 167 kts 269°
2026-04-20 07:11 40.10406 44.29246 4962 ft 164 kts 269°
2026-04-20 07:12 40.10397 44.27772 4623 ft 161 kts 270°
2026-04-20 07:12 40.10441 44.26305 4123 ft 162 kts 282°
2026-04-20 07:12 40.11056 44.25144 3684 ft 158 kts 329°
2026-04-20 07:12 40.12062 44.24939 3724 ft 148 kts
2026-04-20 07:13 40.13174 44.25035 3717 ft 165 kts 11°
2026-04-20 07:13 40.14107 44.25889 3709 ft 171 kts 60°
2026-04-20 07:13 40.14474 44.27369 3697 ft 172 kts 79°
2026-04-20 07:13 40.14626 44.28899 3699 ft 168 kts 84°
2026-04-20 07:14 40.14685 44.30423 3697 ft 167 kts 89°
2026-04-20 07:14 40.14692 44.31936 3685 ft 166 kts 90°
2026-04-20 07:14 40.14698 44.33495 3474 ft 177 kts 90°
2026-04-20 07:14 40.14705 44.35080 3235 ft 172 kts 90°
2026-04-20 07:15 40.14716 44.36629 2989 ft 167 kts 89°
2026-04-20 07:15 40.14718 44.38125 2817 ft 160 kts 90°
2026-04-20 07:15 40.14732 44.39450 2814 ft 126 kts 90°
2026-04-20 07:15 40.14735 44.40335 2823 ft 73 kts 89°
2026-04-20 07:16 40.14740 44.40921 2823 ft 60 kts 90°
2026-04-20 07:16 40.14760 44.41248 2827 ft 19 kts 43°
2026-04-20 07:16 40.14853 44.41218 2826 ft 14 kts 328°
2026-04-20 07:16 40.14924 44.41162 2826 ft 11 kts 329°
2026-04-20 07:17 40.14984 44.41110 2826 ft 10 kts 316°
2026-04-20 07:17 40.15039 44.41055 2826 ft 10 kts 322°
2026-04-20 07:17 40.15056 44.40975 2825 ft 10 kts 257°
2026-04-20 07:17 40.15029 44.40891 2826 ft 11 kts 236°
2026-04-20 07:18 40.14989 44.40780 2826 ft 16 kts 265°
2026-04-20 07:18 40.14997 44.40581 2823 ft 45 kts 279°
2026-04-20 07:18 40.15034 44.39994 2819 ft 52 kts 253°
2026-04-20 07:18 40.15075 44.39840 2820 ft 0 kts 13°